STARLINK-5771 (56023 NORAD) Tracking and Keplerian Element Data

This shows tracking and keplerian element data for the satellite.

Feedback or suggestion? Click here.




ElementValue
Catalog56023
NameSTARLINK-5771
Epoch Orbit717
Epoch Day127.00001157
Epoch Year2023
RAAN293.1897
Inclination42.999
Eccentricity0.000143
Argument of Perigee277.9398
Mean Anonmoly306.6379
Mean Motion15.54965353
Decay Rate-0.00926834
L11 56023U 23042AP 23127.00001157 -.00926834 00000+0 -14872-1 0 9992
L22 56023 42.9990 293.1897 0001430 277.9398 306.6379 15.54965353 7178



Live tracking and technical data element details for STARLINK-5771 (NORAD 56023). STARLINK-5771 can be tracked NOW for your location showing map with azimuth and elevation plus other details from your city location.







IsCatalogInMostPopularTable: catalog: 56023, numindb: -1

Insert: records affected: 1


GetName: 56023 STARLINK-5771

Hit Count: inserted at: Sun, 04 Jun 2023 23:18:18 GMT